QPF
0.00 0.00 0.00 0.01 0.02 0.05 0.04 0.02 0.01 0.01 0.01 0.01 0.01 0.02 0.01 0.02 0.02 0.01 0.02 0.02 0.03 0.02 0.02 0.04 0.05 0.09 0.11 0.12 0.13 0.12 0.10 0.12 0.10 0.13 0.22 0.31 0.36 0.26 0.20 0.25 0.21 0.12 0.11
0.00 0.00 0.00 0.01 0.02 0.04 0.04 0.02 0.01 0.02 0.01 0.01 0.02 0.02 0.02 0.02 0.02 0.02 0.02 0.02 0.02 0.02 0.02 0.03 0.05 0.08 0.10 0.13 0.14 0.13 0.13 0.15 0.12 0.14 0.19 0.25 0.31 0.30 0.25 0.22 0.19 0.15 0.10
0.00 0.00 0.00 0.01 0.01 0.03 0.03 0.03 0.02 0.03 0.02 0.02 0.02 0.03 0.03 0.03 0.03 0.03 0.02 0.02 0.02 0.02 0.02 0.03 0.04 0.07 0.08 0.10 0.14 0.15 0.16 0.17 0.18 0.19 0.20 0.20 0.24 0.22 0.18 0.16 0.15 0.12 0.08
0.00 0.01 0.01 0.01 0.02 0.02 0.02 0.03 0.03 0.04 0.04 0.03 0.03 0.03 0.04 0.04 0.03 0.03 0.02 0.02 0.02 0.02 0.02 0.02 0.03 0.04 0.06 0.06 0.08 0.14 0.16 0.17 0.26 0.28 0.20 0.15 0.17 0.17 0.14 0.14 0.13 0.11 0.09
0.00 0.01 0.01 0.01 0.02 0.02 0.03 0.03 0.03 0.04 0.05 0.05 0.05 0.03 0.03 0.03 0.04 0.04 0.03 0.02 0.02 0.02 0.02 0.02 0.02 0.03 0.05 0.06 0.06 0.11 0.17 0.14 0.23 0.34 0.22 0.14 0.13 0.16 0.12 0.11 0.11 0.11 0.11
0.00 0.01 0.01 0.01 0.02 0.02 0.03 0.03 0.03 0.04 0.04 0.05 0.05 0.03 0.03 0.03 0.03 0.03 0.03 0.02 0.02 0.02 0.03 0.03 0.02 0.02 0.04 0.06 0.06 0.08 0.13 0.13 0.13 0.21 0.20 0.14 0.12 0.14 0.10 0.08 0.09 0.10 0.12
0.00 0.01 0.01 0.01 0.02 0.03 0.04 0.04 0.04 0.04 0.04 0.04 0.05 0.04 0.04 0.04 0.03 0.03 0.03 0.02 0.02 0.02 0.02 0.02 0.02 0.02 0.03 0.05 0.06 0.08 0.11 0.16 0.10 0.12 0.19 0.15 0.12 0.12 0.12 0.09 0.08 0.08 0.12
0.01 0.01 0.01 0.01 0.02 0.03 0.04 0.05 0.05 0.05 0.04 0.03 0.04 0.04 0.04 0.03 0.02 0.02 0.02 0.02 0.03 0.03 0.02 0.02 0.02 0.02 0.03 0.03 0.04 0.05 0.06 0.08 0.11 0.11 0.12 0.09 0.10 0.11 0.12 0.10 0.09 0.09 0.13
0.01 0.01 0.02 0.02 0.02 0.03 0.04 0.05 0.04 0.04 0.04 0.03 0.03 0.04 0.04 0.03 0.02 0.02 0.02 0.03 0.03 0.03 0.03 0.02 0.02 0.03 0.03 0.03 0.03 0.04 0.04 0.05 0.09 0.14 0.15 0.13 0.10 0.12 0.13 0.11 0.10 0.10 0.13
0.06 0.03 0.03 0.04 0.03 0.03 0.03 0.04 0.04 0.04 0.03 0.04 0.03 0.04 0.03 0.03 0.02 0.03 0.02 0.03 0.02 0.02 0.02 0.02 0.03 0.03 0.03 0.03 0.03 0.04 0.05 0.05 0.05 0.08 0.12 0.12 0.09 0.10 0.11 0.11 0.10 0.10 0.11
0.08 0.06 0.04 0.04 0.03 0.03 0.04 0.04 0.05 0.04 0.04 0.03 0.04 0.03 0.03 0.02 0.02 0.03 0.02 0.03 0.02 0.02 0.03 0.03 0.04 0.04 0.04 0.03 0.03 0.04 0.07 0.06 0.09 0.08 0.07 0.08 0.08 0.09 0.09 0.10 0.11 0.11 0.11
0.05 0.06 0.04 0.04 0.03 0.02 0.04 0.04 0.05 0.05 0.04 0.03 0.04 0.04 0.04 0.04 0.04 0.04 0.05 0.04 0.03 0.04 0.03 0.03 0.03 0.04 0.05 0.04 0.04 0.05 0.06 0.06 0.12 0.08 0.08 0.09 0.09 0.09 0.09 0.08 0.10 0.12 0.10
0.05 0.04 0.03 0.03 0.03 0.03 0.04 0.04 0.05 0.06 0.06 0.04 0.04 0.04 0.06 0.07 0.07 0.07 0.07 0.06 0.06 0.06 0.05 0.04 0.03 0.03 0.04 0.03 0.05 0.05 0.04 0.04 0.05 0.04 0.07 0.09 0.08 0.09 0.08 0.07 0.08 0.11 0.10
0.07 0.06 0.04 0.04 0.05 0.07 0.08 0.10 0.06 0.06 0.06 0.05 0.06 0.05 0.05 0.07 0.08 0.06 0.06 0.06 0.07 0.06 0.06 0.05 0.04 0.05 0.05 0.03 0.04 0.05 0.06 0.06 0.07 0.06 0.06 0.07 0.06 0.07 0.09 0.08 0.07 0.08 0.08
0.07 0.07 0.07 0.05 0.06 0.10 0.12 0.19 0.15 0.07 0.04 0.04 0.06 0.06 0.05 0.05 0.06 0.06 0.07 0.07 0.06 0.06 0.06 0.06 0.06 0.07 0.08 0.05 0.04 0.05 0.05 0.07 0.09 0.10 0.06 0.06 0.05 0.06 0.08 0.08 0.08 0.07 0.07
0.05 0.06 0.07 0.06 0.05 0.06 0.07 0.09 0.13 0.08 0.07 0.07 0.06 0.05 0.06 0.06 0.05 0.05 0.05 0.04 0.04 0.05 0.06 0.06 0.07 0.10 0.10 0.07 0.06 0.07 0.07 0.08 0.08 0.06 0.06 0.07 0.06 0.05 0.07 0.09 0.09 0.09 0.08
0.06 0.09 0.10 0.08 0.06 0.06 0.06 0.06 0.05 0.06 0.05 0.05 0.06 0.10 0.09 0.07 0.06 0.06 0.05 0.05 0.04 0.05 0.07 0.07 0.10 0.11 0.07 0.05 0.05 0.08 0.10 0.10 0.08 0.06 0.05 0.06 0.07 0.06 0.06 0.08 0.09 0.07 0.07
0.05 0.12 0.15 0.13 0.09 0.06 0.05 0.05 0.04 0.03 0.04 0.04 0.04 0.06 0.06 0.05 0.07 0.07 0.07 0.08 0.07 0.07 0.07 0.07 0.08 0.08 0.08 0.06 0.06 0.05 0.07 0.09 0.12 0.11 0.09 0.06 0.05 0.05 0.05 0.05 0.05 0.04 0.04
0.03 0.07 0.11 0.12 0.11 0.07 0.06 0.04 0.02 0.03 0.04 0.05 0.06 0.06 0.06 0.05 0.05 0.07 0.08 0.07 0.08 0.10 0.09 0.07 0.07 0.05 0.06 0.06 0.05 0.04 0.03 0.04 0.05 0.08 0.11 0.09 0.05 0.04 0.05 0.05 0.04 0.04 0.03
0.02 0.03 0.04 0.07 0.11 0.10 0.07 0.05 0.04 0.03 0.04 0.05 0.06 0.05 0.05 0.04 0.05 0.08 0.06 0.05 0.07 0.09 0.09 0.09 0.09 0.08 0.06 0.06 0.05 0.05 0.04 0.04 0.04 0.06 0.10 0.13 0.09 0.05 0.05 0.05 0.04 0.03 0.02
0.02 0.02 0.03 0.04 0.07 0.08 0.06 0.05 0.05 0.04 0.04 0.04 0.06 0.06 0.06 0.05 0.05 0.06 0.05 0.06 0.08 0.08 0.09 0.09 0.09 0.09 0.08 0.09 0.09 0.08 0.07 0.06 0.04 0.03 0.05 0.09 0.10 0.09 0.07 0.06 0.05 0.03 0.02
0.01 0.02 0.03 0.04 0.04 0.04 0.04 0.05 0.06 0.05 0.04 0.04 0.06 0.08 0.07 0.05 0.03 0.02 0.04 0.04 0.06 0.08 0.09 0.10 0.09 0.08 0.07 0.09 0.10 0.10 0.08 0.07 0.05 0.03 0.03 0.04 0.04 0.06 0.07 0.07 0.07 0.05 0.03
0.01 0.01 0.02 0.04 0.04 0.04 0.05 0.05 0.07 0.07 0.05 0.04 0.05 0.05 0.05 0.04 0.03 0.02 0.03 0.04 0.04 0.06 0.08 0.09 0.10 0.08 0.06 0.07 0.08 0.10 0.09 0.07 0.05 0.03 0.03 0.03 0.03 0.04 0.04 0.05 0.05 0.05 0.04
0.01 0.01 0.02 0.04 0.05 0.05 0.05 0.05 0.06 0.06 0.05 0.05 0.06 0.06 0.06 0.03 0.03 0.04 0.03 0.04 0.05 0.05 0.06 0.06 0.08 0.09 0.09 0.08 0.07 0.07 0.08 0.08 0.06 0.05 0.03 0.02 0.03 0.04 0.04 0.05 0.05 0.04 0.03
0.01 0.01 0.02 0.04 0.06 0.07 0.06 0.05 0.06 0.06 0.07 0.07 0.07 0.07 0.06 0.04 0.03 0.03 0.04 0.05 0.05 0.05 0.06 0.07 0.09 0.09 0.10 0.10 0.07 0.05 0.05 0.07 0.05 0.05 0.04 0.05 0.05 0.03 0.02 0.04 0.05 0.04 0.04
0.01 0.01 0.01 0.02 0.05 0.08 0.09 0.07 0.06 0.07 0.07 0.07 0.08 0.06 0.05 0.05 0.03 0.03 0.03 0.04 0.05 0.05 0.05 0.05 0.07 0.08 0.08 0.09 0.09 0.08 0.06 0.05 0.04 0.04 0.04 0.04 0.05 0.03 0.03 0.03 0.03 0.03 0.04
MSLP
1011.67 1011.41 1011.28 1011.30 1011.44 1011.63 1011.79 1011.87 1011.84 1011.71 1011.53 1011.38 1011.32 1011.37 1011.55 1011.82 1012.13 1012.43 1012.66 1012.82 1012.92 1012.99 1013.07 1013.19 1013.35 1013.56 1013.77 1013.95 1014.08 1014.13 1014.12 1014.07 1014.00 1013.96 1013.97 1014.04 1014.16 1014.32 1014.50 1014.67 1014.84 1015.00 1015.19
1011.92 1011.74 1011.68 1011.75 1011.91 1012.09 1012.22 1012.25 1012.15 1011.97 1011.76 1011.59 1011.54 1011.63 1011.85 1012.16 1012.50 1012.80 1013.03 1013.18 1013.25 1013.29 1013.33 1013.42 1013.55 1013.73 1013.91 1014.07 1014.17 1014.20 1014.18 1014.12 1014.06 1014.04 1014.07 1014.17 1014.31 1014.49 1014.67 1014.84 1015.00 1015.15 1015.33
1012.07 1011.98 1012.00 1012.14 1012.34 1012.53 1012.64 1012.63 1012.49 1012.28 1012.05 1011.88 1011.84 1011.95 1012.19 1012.51 1012.85 1013.15 1013.35 1013.47 1013.51 1013.52 1013.53 1013.60 1013.71 1013.86 1014.02 1014.15 1014.22 1014.23 1014.20 1014.14 1014.10 1014.10 1014.16 1014.29 1014.45 1014.64 1014.82 1014.99 1015.14 1015.30 1015.48
1012.08 1012.08 1012.20 1012.42 1012.67 1012.89 1013.02 1013.00 1012.86 1012.63 1012.41 1012.25 1012.22 1012.34 1012.58 1012.89 1013.21 1013.47 1013.64 1013.72 1013.73 1013.72 1013.72 1013.77 1013.86 1013.99 1014.13 1014.23 1014.28 1014.28 1014.24 1014.19 1014.17 1014.20 1014.29 1014.44 1014.62 1014.81 1014.99 1015.15 1015.30 1015.47 1015.67
1011.94 1012.04 1012.26 1012.57 1012.91 1013.19 1013.35 1013.36 1013.24 1013.03 1012.82 1012.68 1012.66 1012.78 1013.01 1013.29 1013.57 1013.79 1013.93 1013.98 1013.97 1013.94 1013.94 1013.98 1014.06 1014.18 1014.29 1014.37 1014.40 1014.39 1014.35 1014.31 1014.31 1014.37 1014.49 1014.66 1014.85 1015.04 1015.21 1015.37 1015.51 1015.68 1015.90
1011.69 1011.89 1012.21 1012.62 1013.05 1013.41 1013.63 1013.69 1013.62 1013.45 1013.27 1013.16 1013.15 1013.26 1013.46 1013.71 1013.95 1014.13 1014.22 1014.25 1014.23 1014.20 1014.20 1014.24 1014.33 1014.43 1014.52 1014.58 1014.59 1014.57 1014.53 1014.51 1014.53 1014.62 1014.77 1014.95 1015.15 1015.34 1015.50 1015.64 1015.77 1015.94 1016.18
1011.41 1011.69 1012.11 1012.63 1013.14 1013.58 1013.87 1013.99 1013.97 1013.86 1013.72 1013.63 1013.63 1013.73 1013.91 1014.12 1014.32 1014.46 1014.53 1014.54 1014.52 1014.50 1014.51 1014.56 1014.64 1014.73 1014.81 1014.84 1014.84 1014.80 1014.77 1014.76 1014.82 1014.93 1015.11 1015.31 1015.51 1015.69 1015.83 1015.95 1016.08 1016.25 1016.49
1011.19 1011.54 1012.04 1012.63 1013.21 1013.71 1014.06 1014.24 1014.27 1014.21 1014.11 1014.05 1014.07 1014.17 1014.33 1014.51 1014.67 1014.78 1014.83 1014.83 1014.81 1014.80 1014.82 1014.88 1014.96 1015.03 1015.09 1015.10 1015.08 1015.05 1015.02 1015.04 1015.12 1015.27 1015.47 1015.69 1015.89 1016.06 1016.19 1016.29 1016.40 1016.55 1016.79
1011.09 1011.49 1012.05 1012.68 1013.30 1013.83 1014.21 1014.42 1014.48 1014.46 1014.40 1014.38 1014.41 1014.52 1014.67 1014.82 1014.96 1015.05 1015.08 1015.08 1015.06 1015.06 1015.09 1015.14 1015.22 1015.28 1015.32 1015.32 1015.29 1015.26 1015.25 1015.29 1015.41 1015.59 1015.81 1016.05 1016.26 1016.43 1016.54 1016.62 1016.70 1016.83 1017.04
1011.16 1011.60 1012.18 1012.82 1013.43 1013.94 1014.31 1014.52 1014.59 1014.59 1014.56 1014.57 1014.63 1014.75 1014.90 1015.05 1015.17 1015.25 1015.27 1015.26 1015.24 1015.24 1015.26 1015.32 1015.38 1015.44 1015.47 1015.47 1015.44 1015.42 1015.44 1015.51 1015.66 1015.87 1016.12 1016.37 1016.59 1016.75 1016.85 1016.91 1016.97 1017.07 1017.25
1011.42 1011.87 1012.44 1013.04 1013.60 1014.05 1014.36 1014.53 1014.59 1014.60 1014.60 1014.63 1014.73 1014.87 1015.04 1015.19 1015.31 1015.37 1015.39 1015.37 1015.34 1015.33 1015.35 1015.39 1015.45 1015.50 1015.54 1015.54 1015.54 1015.55 1015.59 1015.70 1015.88 1016.12 1016.39 1016.66 1016.88 1017.04 1017.13 1017.18 1017.21 1017.28 1017.41
1011.81 1012.27 1012.80 1013.34 1013.81 1014.17 1014.39 1014.50 1014.52 1014.52 1014.53 1014.60 1014.73 1014.91 1015.10 1015.27 1015.39 1015.45 1015.46 1015.42 1015.38 1015.36 1015.36 1015.40 1015.45 1015.51 1015.56 1015.59 1015.62 1015.67 1015.76 1015.91 1016.12 1016.38 1016.67 1016.94 1017.17 1017.32 1017.40 1017.44 1017.45 1017.48 1017.57
1012.30 1012.75 1013.23 1013.68 1014.04 1014.29 1014.41 1014.44 1014.42 1014.40 1014.43 1014.53 1014.70 1014.91 1015.13 1015.33 1015.46 1015.52 1015.51 1015.47 1015.41 1015.37 1015.36 1015.39 1015.44 1015.52 1015.59 1015.67 1015.75 1015.85 1015.99 1016.18 1016.42 1016.69 1016.98 1017.25 1017.47 1017.61 1017.69 1017.71 1017.71 1017.72 1017.77
1012.80 1013.24 1013.67 1014.04 1014.29 1014.43 1014.46 1014.41 1014.35 1014.32 1014.36 1014.48 1014.68 1014.93 1015.18 1015.40 1015.55 1015.61 1015.60 1015.54 1015.47 1015.41 1015.39 1015.41 1015.47 1015.57 1015.68 1015.81 1015.95 1016.11 1016.31 1016.53 1016.79 1017.08 1017.35 1017.61 1017.80 1017.94 1018.01 1018.03 1018.02 1018.01 1018.04
1013.25 1013.69 1014.08 1014.37 1014.54 1014.59 1014.55 1014.45 1014.36 1014.32 1014.37 1014.51 1014.74 1015.01 1015.29 1015.52 1015.68 1015.75 1015.74 1015.68 1015.60 1015.53 1015.49 1015.51 1015.59 1015.71 1015.87 1016.05 1016.25 1016.47 1016.71 1016.98 1017.25 1017.53 1017.78 1018.01 1018.18 1018.30 1018.36 1018.38 1018.37 1018.37 1018.39
1013.57 1014.02 1014.39 1014.64 1014.77 1014.77 1014.69 1014.58 1014.48 1014.44 1014.49 1014.65 1014.89 1015.17 1015.46 1015.70 1015.87 1015.95 1015.94 1015.88 1015.80 1015.72 1015.69 1015.71 1015.79 1015.94 1016.13 1016.36 1016.62 1016.90 1017.18 1017.47 1017.75 1018.01 1018.24 1018.43 1018.57 1018.66 1018.71 1018.74 1018.75 1018.77 1018.80
1013.74 1014.21 1014.58 1014.83 1014.95 1014.96 1014.89 1014.79 1014.70 1014.67 1014.74 1014.89 1015.12 1015.39 1015.66 1015.90 1016.07 1016.16 1016.17 1016.12 1016.05 1015.98 1015.95 1015.97 1016.07 1016.22 1016.45 1016.71 1017.01 1017.33 1017.64 1017.95 1018.22 1018.46 1018.66 1018.81 1018.91 1018.98 1019.03 1019.07 1019.11 1019.16 1019.23
1013.75 1014.24 1014.64 1014.91 1015.07 1015.12 1015.10 1015.04 1014.99 1014.98 1015.04 1015.18 1015.38 1015.62 1015.87 1016.09 1016.26 1016.36 1016.39 1016.37 1016.32 1016.27 1016.25 1016.27 1016.37 1016.53 1016.76 1017.05 1017.37 1017.71 1018.04 1018.35 1018.62 1018.83 1018.99 1019.10 1019.18 1019.23 1019.27 1019.33 1019.40 1019.50 1019.62
1013.60 1014.12 1014.55 1014.88 1015.10 1015.23 1015.29 1015.30 1015.29 1015.31 1015.36 1015.47 1015.63 1015.82 1016.02 1016.22 1016.38 1016.50 1016.56 1016.58 1016.57 1016.55 1016.54 1016.58 1016.67 1016.83 1017.05 1017.34 1017.66 1018.01 1018.34 1018.64 1018.90 1019.09 1019.22 1019.29 1019.34 1019.37 1019.42 1019.49 1019.61 1019.75 1019.93
1013.33 1013.87 1014.34 1014.73 1015.03 1015.25 1015.40 1015.49 1015.55 1015.59 1015.63 1015.70 1015.81 1015.94 1016.10 1016.26 1016.42 1016.56 1016.66 1016.73 1016.77 1016.79 1016.81 1016.85 1016.94 1017.09 1017.30 1017.56 1017.88 1018.21 1018.53 1018.82 1019.06 1019.23 1019.33 1019.38 1019.41 1019.43 1019.48 1019.57 1019.72 1019.92 1020.15
1012.95 1013.50 1014.01 1014.46 1014.85 1015.17 1015.41 1015.59 1015.70 1015.76 1015.80 1015.84 1015.89 1015.97 1016.07 1016.22 1016.38 1016.54 1016.69 1016.82 1016.92 1016.99 1017.05 1017.10 1017.19 1017.32 1017.50 1017.74 1018.03 1018.34 1018.65 1018.92 1019.14 1019.29 1019.38 1019.41 1019.42 1019.44 1019.49 1019.60 1019.77 1020.01 1020.29
1012.49 1013.06 1013.59 1014.10 1014.56 1014.97 1015.30 1015.55 1015.72 1015.82 1015.86 1015.86 1015.87 1015.90 1015.98 1016.10 1016.27 1016.47 1016.67 1016.86 1017.03 1017.15 1017.25 1017.33 1017.41 1017.53 1017.69 1017.90 1018.16 1018.44 1018.73 1018.99 1019.19 1019.33 1019.40 1019.42 1019.42 1019.44 1019.49 1019.61 1019.81 1020.07 1020.38
1011.99 1012.55 1013.11 1013.66 1014.18 1014.66 1015.06 1015.39 1015.61 1015.74 1015.79 1015.79 1015.77 1015.78 1015.83 1015.95 1016.13 1016.36 1016.62 1016.87 1017.09 1017.28 1017.41 1017.52 1017.62 1017.73 1017.87 1018.06 1018.29 1018.55 1018.81 1019.05 1019.24 1019.37 1019.44 1019.46 1019.46 1019.47 1019.53 1019.65 1019.85 1020.13 1020.45
1011.45 1012.02 1012.59 1013.17 1013.73 1014.26 1014.73 1015.11 1015.38 1015.55 1015.62 1015.63 1015.61 1015.62 1015.67 1015.79 1015.99 1016.25 1016.55 1016.85 1017.13 1017.36 1017.54 1017.67 1017.78 1017.89 1018.03 1018.20 1018.42 1018.66 1018.90 1019.13 1019.32 1019.45 1019.51 1019.54 1019.54 1019.55 1019.61 1019.73 1019.92 1020.19 1020.52
1010.89 1011.47 1012.06 1012.65 1013.25 1013.81 1014.32 1014.75 1015.07 1015.27 1015.38 1015.42 1015.42 1015.44 1015.50 1015.64 1015.86 1016.14 1016.46 1016.80 1017.11 1017.37 1017.58 1017.74 1017.88 1018.00 1018.14 1018.31 1018.51 1018.74 1018.98 1019.20 1019.39 1019.52 1019.60 1019.63 1019.64 1019.66 1019.72 1019.83 1020.01 1020.26 1020.56
1010.32 1010.92 1011.52 1012.14 1012.75 1013.34 1013.87 1014.33 1014.69 1014.94 1015.09 1015.16 1015.20 1015.24 1015.33 1015.48 1015.71 1016.00 1016.34 1016.68 1017.00 1017.29 1017.52 1017.70 1017.85 1018.00 1018.15 1018.33 1018.53 1018.76 1019.00 1019.22 1019.41 1019.55 1019.64 1019.69 1019.72 1019.75 1019.81 1019.92 1020.08 1020.30 1020.57
Thickness
5816 5811 5806 5802 5799 5796 5793 5790 5788 5786 5784 5782 5781 5779 5777 5776 5775 5774 5772 5771 5770 5769 5768 5766 5765 5764 5763 5762 5761 5760 5759 5758 5757 5757 5756 5755 5754 5753 5753 5752 5752 5751 5750
5818 5809 5804 5800 5797 5793 5790 5787 5785 5783 5781 5779 5777 5776 5774 5773 5772 5770 5769 5768 5767 5766 5765 5764 5763 5762 5760 5759 5758 5757 5756 5756 5755 5754 5754 5753 5752 5751 5751 5750 5750 5748 5747
5817 5808 5802 5798 5795 5791 5788 5785 5783 5781 5778 5777 5775 5773 5771 5770 5768 5767 5766 5765 5763 5762 5761 5761 5760 5759 5757 5757 5755 5754 5754 5753 5753 5752 5752 5751 5750 5750 5749 5748 5746 5745 5744
5817 5808 5801 5796 5793 5789 5786 5783 5780 5778 5776 5773 5772 5770 5768 5767 5766 5764 5763 5762 5760 5759 5758 5757 5757 5756 5754 5753 5752 5751 5751 5751 5750 5750 5750 5749 5749 5747 5747 5746 5744 5742 5741
5815 5806 5798 5794 5791 5787 5784 5781 5778 5775 5773 5770 5768 5767 5765 5764 5762 5761 5760 5759 5757 5756 5755 5754 5753 5753 5752 5751 5750 5749 5748 5748 5748 5748 5748 5747 5746 5745 5744 5742 5740 5739 5738
5813 5805 5796 5792 5788 5785 5782 5778 5776 5773 5770 5768 5765 5764 5762 5761 5759 5758 5757 5756 5755 5753 5752 5751 5750 5749 5749 5748 5747 5747 5746 5746 5746 5746 5746 5745 5744 5743 5741 5740 5738 5736 5735
5811 5803 5794 5790 5786 5783 5779 5776 5773 5771 5768 5765 5763 5761 5759 5758 5756 5755 5754 5753 5752 5751 5749 5748 5747 5746 5746 5745 5745 5744 5743 5743 5743 5744 5744 5743 5742 5741 5739 5737 5735 5734 5733
5808 5801 5792 5788 5784 5780 5777 5774 5771 5768 5766 5763 5761 5759 5757 5755 5754 5752 5752 5751 5750 5748 5747 5746 5745 5744 5743 5742 5742 5741 5741 5740 5742 5742 5742 5740 5739 5738 5737 5735 5732 5731 5730
5807 5799 5792 5787 5782 5777 5774 5771 5769 5766 5764 5761 5759 5757 5755 5753 5752 5750 5750 5749 5748 5746 5745 5743 5742 5742 5740 5740 5739 5739 5739 5739 5738 5739 5739 5738 5737 5735 5734 5732 5730 5728 5727
5803 5798 5791 5787 5781 5777 5772 5769 5767 5764 5761 5759 5757 5755 5754 5752 5750 5749 5747 5746 5745 5744 5743 5741 5740 5739 5738 5738 5737 5737 5737 5736 5737 5737 5737 5736 5735 5733 5731 5730 5728 5726 5725
5798 5796 5791 5786 5782 5778 5774 5768 5765 5762 5759 5757 5755 5753 5752 5750 5749 5748 5746 5744 5743 5742 5740 5738 5737 5736 5736 5736 5735 5735 5734 5734 5735 5735 5735 5734 5733 5731 5729 5727 5726 5725 5723
5791 5790 5788 5784 5781 5777 5773 5767 5763 5761 5757 5755 5754 5752 5750 5750 5748 5746 5744 5742 5741 5739 5738 5737 5735 5735 5734 5734 5734 5733 5733 5733 5734 5733 5733 5732 5731 5729 5727 5726 5724 5723 5722
5789 5786 5783 5780 5777 5775 5770 5765 5762 5760 5756 5754 5752 5750 5749 5748 5746 5744 5742 5740 5738 5737 5736 5736 5734 5734 5734 5734 5733 5732 5732 5732 5732 5732 5730 5730 5728 5727 5725 5723 5722 5721 5720
5786 5783 5782 5779 5774 5771 5767 5762 5759 5757 5754 5752 5750 5748 5746 5745 5744 5742 5739 5737 5736 5735 5734 5733 5733 5732 5732 5732 5731 5731 5730 5729 5729 5728 5727 5727 5725 5724 5722 5721 5719 5718 5717
5782 5780 5778 5774 5769 5766 5762 5757 5755 5753 5752 5751 5748 5745 5744 5742 5740 5739 5736 5735 5733 5732 5731 5730 5729 5729 5728 5728 5728 5727 5727 5726 5726 5725 5724 5724 5723 5722 5720 5718 5717 5716 5715
5780 5778 5775 5771 5766 5762 5758 5755 5752 5751 5750 5749 5746 5743 5740 5738 5736 5735 5732 5730 5729 5728 5727 5726 5725 5725 5724 5724 5724 5723 5723 5722 5722 5722 5721 5720 5720 5719 5717 5716 5715 5713 5713
5779 5777 5772 5769 5764 5760 5756 5753 5751 5750 5748 5747 5744 5740 5736 5734 5733 5731 5729 5726 5725 5724 5723 5722 5721 5721 5720 5720 5719 5719 5720 5720 5719 5719 5718 5718 5716 5715 5714 5713 5712 5711 5710
5777 5773 5770 5767 5761 5757 5753 5751 5749 5748 5746 5744 5741 5737 5734 5731 5729 5727 5725 5723 5721 5720 5719 5717 5716 5715 5715 5715 5715 5716 5717 5717 5716 5716 5716 5715 5714 5713 5711 5710 5709 5709 5708
5775 5770 5766 5763 5759 5755 5751 5748 5747 5745 5742 5740 5738 5734 5731 5729 5727 5724 5722 5720 5718 5716 5714 5713 5711 5710 5709 5710 5711 5712 5713 5713 5713 5713 5712 5712 5711 5710 5709 5708 5707 5706 5705
5772 5768 5762 5759 5755 5751 5748 5745 5743 5741 5739 5737 5734 5732 5729 5726 5723 5721 5718 5717 5715 5712 5710 5708 5707 5707 5706 5706 5707 5708 5709 5709 5709 5709 5708 5707 5708 5708 5707 5706 5704 5703 5702
5768 5763 5758 5754 5751 5748 5744 5741 5737 5735 5734 5733 5731 5728 5726 5723 5720 5718 5716 5714 5712 5709 5707 5705 5703 5702 5701 5703 5700 5699 5702 5705 5705 5705 5704 5704 5703 5704 5704 5703 5702 5701 5700
5765 5761 5756 5752 5748 5746 5742 5740 5736 5734 5732 5730 5728 5725 5723 5720 5718 5716 5713 5711 5710 5707 5704 5702 5701 5698 5698 5699 5695 5691 5689 5692 5696 5700 5699 5698 5699 5700 5700 5700 5700 5699 5698
5764 5759 5755 5750 5746 5743 5740 5737 5734 5731 5728 5726 5723 5721 5719 5717 5715 5713 5711 5709 5707 5705 5702 5700 5698 5696 5693 5695 5695 5689 5683 5681 5685 5690 5693 5694 5695 5695 5696 5697 5697 5697 5696
5763 5759 5754 5749 5744 5741 5738 5734 5730 5725 5722 5722 5721 5719 5717 5715 5713 5711 5709 5707 5705 5703 5700 5698 5696 5695 5692 5689 5690 5690 5687 5684 5678 5678 5684 5690 5691 5691 5692 5694 5694 5694 5693
5764 5758 5752 5747 5742 5738 5735 5732 5728 5724 5722 5721 5718 5716 5714 5712 5710 5708 5706 5704 5702 5700 5698 5696 5694 5692 5690 5688 5686 5685 5684 5682 5681 5675 5674 5678 5683 5686 5688 5690 5690 5691 5690
5761 5756 5750 5744 5739 5736 5732 5729 5725 5722 5719 5716 5713 5711 5710 5709 5707 5706 5704 5701 5699 5697 5695 5693 5691 5689 5687 5686 5684 5682 5680 5678 5675 5674 5672 5672 5675 5679 5684 5686 5687 5687 5687